Starlink 32668

operational
NORAD ID: 62212 Int'l Des: 2024-229 Owner: SPXS Country: US Constellation: starlink
LEOCIRCULAR

Starlink 32668について

説明を読み込み中...

リアルタイム位置

3D地球を読み込み中...

次回通過

高度履歴

Altitude vs Time

uPlot chart will show altitude changes over time

軌道要素

1 62212U 24229W 25303.01373556 -.00011647 00000-0 -41490-3 0 9997
2 62212 43.0009 285.4689 0001478 223.1663 136.9073 15.27538337 50611
Epoch: Oct 30, 2025 • Age: 20 hours

現在のステータス

高度 487.4 km
速度 7.62 km/s
衛星直下点 -22.27°S, 145.94°E
打ち上げ日 Dec 4, 2024
運用期間 0.9 years
タイプ internet

技術仕様

分類 Payload
質量 730.00 kg
乾燥質量 700.00 kg
総質量 730.00 kg
長さ 0.30 m
直径 4.10 m
スパン 29.00 m
形状 Box + pan
製造者 SPXS
バスタイプ Starlink V2M
フェーズステータス In Orbit
所有者/国 SPXS/US

大規模コンステレーション

Loading constellations...